Torna al catalogo

STARLINK-6378

AttivoComunicazioniVLEO
NORAD 57347·PAYLOAD·🇺🇸 United States

Lanciato Jul 16, 2023 da Cape Canaveral Space Force Station

Loading…

Prossimi Passaggi (prossime 24 ore)

TLE

AggiornatoSource: CelesTrak SupGP

Epoca: Sep 14, 2026, 22:27 UTC

1 57347C 23099V   26257.93590278  .00024416  00000+0  88462-3 0  2578
2 57347  43.0004 267.0465 0001682 267.4646 292.7475 15.27555260    16

Traccia STARLINK-6378 in tempo reale con AllMySat

Download on the App Store